[[{"header":{"parameterUnit":"m.s-1","parameterCategory":1,"la1":30.2991,"la2":30.254,"lo1":-89.0895,"lo2":-89.0444,"dy":0.0017,"dx":0.0017,"nx":28,"ny":28,"refTime":"2025-12-05T03:00:00:Z","depth":0,"parameterNumber":2,"parameterNumberName":"U-component_of_WINDS"},"data":[0,0,0,0,0,0,0,0,0,0,0,0,0,0,0,0,0,0,0,0,0,0,0,0,0,0,0,0,0,0,0,0,0,0,0,0,0,0,0,0,0,0,0,0,0,0,0,0,0,0,0,0,0,0,0,0,0,0,0.3587,0.3586,0,0.3517,0.3516,0.3515,0.3496,0.3496,0.3497,0.3497,0.3423,0.3421,0.3419,0,0,0,0,0,0,0,0,0,0,0,0,0,0.3704,0.3702,0.3587,0.3586,0.3586,0.3517,0.3516,0.3515,0.3496,0.3496,0.3497,0.3497,0.3424,0.3421,0.3419,0,0,0,0,0,0,0,0,0,0,0,0,0,0.3645,0.3701,0.3587,0.3568,0.3565,0.3517,0.3516,0.3515,0.3496,0.3496,0.3497,0.3498,0.3425,0.3422,0.3418,0.3384,0,0,0.3407,0.3406,0,0,0,0,0,0,0,0,0.3649,0.3641,0.3571,0.3569,0.3566,0.3516,0.353,0.3471,0.3496,0.3522,0.3497,0.3498,0.3454,0.3448,0.3433,0.3381,0.3378,0.3407,0.3405,0.3403,0.3402,0,0,0,0,0,0,0,0.3653,0.3644,0.3559,0.357,0.3567,0.3562,0.3554,0.3519,0.3485,0.352,0.3518,0.351,0.3452,0.3437,0.3431,0.3377,0.3407,0.3404,0.3402,0.3401,0.3294,0.3293,0,0,0,0,0,0,0.366,0.3647,0.3562,0.3557,0.361,0.3559,0.3551,0.3531,0.3486,0.3479,0.351,0.351,0.3442,0.3435,0.3429,0.3386,0.3403,0.34,0.3398,0.3294,0.3294,0.3293,0,0,0,0,0,0,0.3663,0.3653,0.3564,0.3602,0.359,0.3557,0.3535,0.353,0.3514,0.3478,0.3472,0.35,0.3442,0.3434,0.3396,0.3383,0.3399,0.3395,0.3295,0.3294,0.3293,0.3301,0,0,0,0,0,0,0.3666,0.3654,0.3641,0.3602,0.3588,0.3533,0.3534,0.3528,0.3508,0.3507,0.3467,0.3461,0.3442,0.3401,0.3392,0.3379,0.3393,0.3296,0.3295,0.3294,0.3302,0.33,0.3299,0,0,0,0,0,0.3671,0.3645,0.364,0.363,0.3571,0.3532,0.3525,0.3504,0.3507,0.3494,0.3471,0.3462,0.3386,0.3397,0.3387,0.3372,0.3297,0.3295,0.3294,0.3302,0.3301,0.3299,0,0,0,0,0,0,0.3682,0.364,0.3634,0.3595,0.3568,0.3529,0.3511,0.3503,0.3473,0.3473,0.3448,0.344,0.3404,0.3384,0.3397,0.3338,0.3341,0.3338,0.3351,0.335,0.3348,0.3353,0.339,0,0,0,0,0,0.3681,0.3653,0.3617,0.3586,0.3573,0.3545,0.3527,0.3514,0.3484,0.3472,0.3446,0.3417,0.3387,0.3367,0.3337,0.3299,0.329,0.3284,0.3283,0.3282,0.3279,0.3258,0.3255,0.3287,0.3287,0.3287,0,0,0.3677,0.365,0.3634,0.3588,0.3565,0.3537,0.3535,0.3505,0.3483,0.3467,0.343,0.341,0.3376,0.3339,0.3321,0.3321,0.3268,0.328,0.328,0.3277,0.3256,0.3253,0.325,0.3286,0.3286,0.3287,0,0,0.3654,0.3632,0.3604,0.3581,0.3547,0.3529,0.3522,0.3485,0.3472,0.3435,0.3422,0.3396,0.3344,0.3321,0.3302,0.3273,0.3264,0.3264,0.3257,0.3237,0.3234,0.3232,0.3222,0.3218,0.3261,0.3261,0.3261,0,0.3653,0.361,0.359,0.3561,0.3542,0.3527,0.3498,0.3478,0.3435,0.3422,0.3424,0.3359,0.3335,0.3292,0.3285,0.327,0.3262,0.3268,0.3236,0.3234,0.3231,0.3221,0.3217,0.3261,0.3261,0.3261,0.3261,0,0.3611,0.3582,0.3563,0.3524,0.3502,0.3473,0.3449,0.343,0.3419,0.34,0.3363,0.3334,0.3298,0.3287,0.3275,0.3242,0.3244,0.3241,0.3244,0.3229,0.3219,0.3215,0.3262,0.3262,0.3262,0.3262,0,0,0.3593,0.3544,0.3537,0.352,0.3482,0.3458,0.3429,0.3395,0.3379,0.3351,0.3326,0.3283,0.3281,0.326,0.3246,0.3228,0.3208,0.3228,0.3227,0.3225,0.3169,0.3171,0.3167,0.3202,0.3201,0.3201,0.3172,0,0.3566,0.3514,0.3495,0.3452,0.3425,0.3411,0.3386,0.336,0.3343,0.3317,0.3297,0.3267,0.3267,0.3254,0.3236,0.3214,0.3196,0.3216,0.3178,0.3177,0.3187,0.3162,0.3163,0.3138,0.3168,0.3168,0.3167,0,0.3526,0.3499,0.3454,0.342,0.3408,0.3385,0.3353,0.3329,0.3299,0.3288,0.3265,0.3253,0.3222,0.3228,0.3185,0.3199,0.3183,0.317,0.3169,0.3164,0.3171,0.3156,0.3129,0.3125,0.3161,0.3161,0.3162,0,0.3518,0.3469,0.3436,0.3421,0.3381,0.3366,0.3348,0.332,0.3301,0.3273,0.326,0.3229,0.3211,0.3187,0.3167,0.3173,0.3126,0.313,0.3115,0.3116,0.3105,0.3106,0.3075,0.3096,0.3096,0.3096,0.3096,0,0.3489,0.3462,0.3432,0.3411,0.338,0.336,0.333,0.3311,0.3286,0.3262,0.3248,0.3226,0.32,0.3174,0.3158,0.3125,0.3118,0.3107,0.3103,0.3108,0.3109,0.3097,0.3098,0.3095,0.3095,0.3095,0.3095,0,0.3474,0.3452,0.3415,0.3381,0.3372,0.3351,0.3321,0.3301,0.3283,0.3253,0.3244,0.3216,0.3185,0.3163,0.3122,0.3112,0.3077,0.3073,0.3087,0.3084,0.3071,0.3072,0.303,0.3024,0.3049,0.3049,0.3049,0,0.3456,0.3435,0.3399,0.3382,0.3365,0.3338,0.3319,0.3298,0.3279,0.3245,0.3228,0.3197,0.317,0.3121,0.3097,0.3067,0.3062,0.3049,0.3057,0.3063,0.3061,0.3063,0.306,0.3048,0.3047,0.3047,0.3047,0,0.3428,0.3419,0.3392,0.3362,0.334,0.3315,0.329,0.3277,0.3252,0.3231,0.32,0.3179,0.3139,0.3108,0.3075,0.3057,0.3048,0.3045,0.304,0.3045,0.3054,0.3049,0.3083,0.3046,0.3046,0.3046,0.3046,0.3046,0.3411,0.3392,0.3364,0.3335,0.3314,0.3291,0.3271,0.3251,0.3225,0.3191,0.318,0.3148,0.312,0.3075,0.3057,0.3031,0.3031,0.3024,0.3022,0.302,0.3021,0.3058,0.3025,0.3025,0.3025,0.3025,0.3025,0,0.3381,0.3363,0.3337,0.3303,0.328,0.3275,0.3247,0.3229,0.32,0.3175,0.315,0.3114,0.3084,0.3059,0.3028,0.3012,0.3007,0.3004,0.3005,0.3001,0.3022,0.3029,0.3009,0.3009,0.3009,0.3009,0.3009,0.3009,0.3364,0.3331,0.3319,0.3276,0.3258,0.3227,0.3211,0.3191,0.3171,0.3132,0.3107,0.3091,0.3065,0.3033,0.3005,0.2998,0.2987,0.2986,0.2978,0.2998,0.3,0.3001,0.3008,0.2984,0.2984,0.2959,0.2959,0.2959]},{"header":{"parameterUnit":"m.s-1","parameterCategory":1,"la1":30.2991,"la2":30.254,"lo1":-89.0895,"lo2":-89.0444,"dy":0.0017,"dx":0.0017,"nx":28,"ny":28,"refTime":"2025-12-05T03:00:00:Z","depth":0,"parameterNumber":3,"parameterNumberName":"V-component_of_WINDS"},"data":[0,0,0,0,0,0,0,0,0,0,0,0,0,0,0,0,0,0,0,0,0,0,0,0,0,0,0,0,0,0,0,0,0,0,0,0,0,0,0,0,0,0,0,0,0,0,0,0,0,0,0,0,0,0,0,0,0,0,-6.3136,-6.3137,0,-6.3225,-6.3226,-6.3227,-6.3165,-6.3162,-6.316,-6.3157,-6.3242,-6.3247,-6.3252,0,0,0,0,0,0,0,0,0,0,0,0,0,-6.2905,-6.291,-6.3136,-6.3137,-6.3138,-6.3225,-6.3226,-6.3227,-6.3166,-6.3162,-6.3159,-6.3156,-6.3241,-6.3246,-6.3252,0,0,0,0,0,0,0,0,0,0,0,0,0,-6.3001,-6.2911,-6.3135,-6.3118,-6.3117,-6.3225,-6.3226,-6.3227,-6.3166,-6.3162,-6.3158,-6.3154,-6.3239,-6.3246,-6.3253,-6.3381,0,0,-6.3275,-6.3278,0,0,0,0,0,0,0,0,-6.2996,-6.3009,-6.3119,-6.3119,-6.3119,-6.318,-6.3176,-6.3279,-6.3167,-6.3147,-6.3157,-6.3152,-6.3224,-6.3232,-6.3258,-6.3385,-6.3388,-6.3276,-6.328,-6.3283,-6.3285,0,0,0,0,0,0,0,-6.2989,-6.3005,-6.3171,-6.3121,-6.3121,-6.3103,-6.3112,-6.3195,-6.3208,-6.3149,-6.3145,-6.3156,-6.3223,-6.3251,-6.326,-6.339,-6.3276,-6.3282,-6.3286,-6.3289,-6.3624,-6.3629,0,0,0,0,0,0,-6.2985,-6.3,-6.3168,-6.3173,-6.3046,-6.3111,-6.3121,-6.3164,-6.3207,-6.3209,-6.316,-6.3153,-6.3241,-6.3251,-6.3262,-6.3414,-6.3283,-6.329,-6.3294,-6.362,-6.3625,-6.363,0,0,0,0,0,0,-6.298,-6.3,-6.3164,-6.3086,-6.3105,-6.3119,-6.3168,-6.3168,-6.3196,-6.3215,-6.3216,-6.3187,-6.3238,-6.3252,-6.3352,-6.3417,-6.3293,-6.33,-6.3615,-6.3622,-6.3628,-6.372,0,0,0,0,0,0,-6.2974,-6.2999,-6.3049,-6.3087,-6.311,-6.3255,-6.3172,-6.3173,-6.321,-6.3202,-6.3241,-6.3243,-6.3236,-6.3342,-6.3359,-6.3424,-6.3306,-6.3609,-6.3618,-6.3626,-6.3711,-6.3729,-6.3744,0,0,0,0,0,-6.2966,-6.307,-6.3052,-6.3073,-6.3173,-6.3258,-6.3271,-6.3263,-6.3215,-6.3265,-6.3277,-6.3242,-6.3407,-6.3352,-6.3372,-6.344,-6.3605,-6.3615,-6.3625,-6.3704,-6.3726,-6.3744,0,0,0,0,0,0,-6.3037,-6.3075,-6.3055,-6.3176,-6.3215,-6.3248,-6.331,-6.3286,-6.3337,-6.3328,-6.3313,-6.3322,-6.3427,-6.3443,-6.3382,-6.3565,-6.3498,-6.3512,-6.3551,-6.3572,-6.3588,-6.3582,-6.3312,0,0,0,0,0,-6.3067,-6.3136,-6.3164,-6.3267,-6.3288,-6.3296,-6.3333,-6.3323,-6.3362,-6.3377,-6.3397,-6.3434,-6.3494,-6.3534,-6.359,-6.3713,-6.372,-6.377,-6.3786,-6.38,-6.3812,-6.3878,-6.39,-6.3664,-6.3664,-6.3664,0,0,-6.3129,-6.3158,-6.3202,-6.3282,-6.3311,-6.338,-6.331,-6.3386,-6.3437,-6.3388,-6.3484,-6.35,-6.354,-6.3652,-6.3702,-6.3669,-6.3879,-6.3813,-6.3824,-6.3829,-6.3891,-6.3913,-6.3933,-6.3671,-6.367,-6.3668,0,0,-6.3278,-6.3307,-6.3397,-6.3428,-6.3473,-6.3478,-6.35,-6.3537,-6.3546,-6.3643,-6.3608,-6.3667,-6.3771,-6.3801,-6.383,-6.3991,-6.396,-6.4009,-6.4096,-6.416,-6.4178,-6.4195,-6.4251,-6.4272,-6.4022,-6.4022,-6.4022,0,-6.3348,-6.3453,-6.3445,-6.3524,-6.356,-6.3522,-6.3611,-6.3641,-6.3702,-6.3726,-6.3689,-6.3819,-6.3843,-6.3962,-6.4001,-6.4026,-6.4049,-6.4004,-6.4177,-6.4193,-6.4208,-6.4262,-6.4283,-6.4028,-6.4027,-6.4026,-6.4026,0,-6.3538,-6.3611,-6.3677,-6.374,-6.3783,-6.3867,-6.3869,-6.3913,-6.39,-6.3908,-6.4006,-6.4035,-6.4096,-6.4123,-6.411,-6.424,-6.4218,-6.4179,-6.411,-6.4237,-6.4287,-6.4307,-6.4036,-6.4034,-6.4032,-6.4031,0,0,-6.3733,-6.3791,-6.3815,-6.3843,-6.3891,-6.3946,-6.4027,-6.409,-6.4128,-6.4171,-6.4237,-6.4327,-6.4291,-6.4324,-6.4314,-6.4371,-6.4495,-6.4324,-6.4325,-6.4355,-6.4639,-6.4667,-6.4692,-6.4476,-6.4479,-6.4483,-6.4635,0,-6.3883,-6.4028,-6.4023,-6.4157,-6.4224,-6.4189,-6.4259,-6.4295,-6.4305,-6.4361,-6.4371,-6.4434,-6.4383,-6.4403,-6.4457,-6.4469,-6.4552,-6.4458,-6.4536,-6.4539,-6.4526,-6.4718,-6.4749,-6.4891,-6.4655,-6.4658,-6.4661,0,-6.4078,-6.4131,-6.4272,-6.4311,-6.4338,-6.4403,-6.4459,-6.4514,-6.4553,-6.4556,-6.4594,-6.4575,-6.4655,-6.4586,-6.4695,-6.4631,-6.4663,-6.4673,-6.4678,-6.4685,-6.4607,-6.4729,-6.4937,-6.4958,-6.4691,-6.4689,-6.4687,0,-6.4206,-6.4312,-6.441,-6.4435,-6.4482,-6.4528,-6.4549,-6.4585,-6.4622,-6.4671,-6.4695,-6.4752,-6.4783,-6.4826,-6.4822,-6.4772,-6.4933,-6.4863,-6.4936,-6.4936,-6.4971,-6.4969,-6.5186,-6.4993,-6.4992,-6.4992,-6.4992,0,-6.4374,-6.4462,-6.4468,-6.4528,-6.4625,-6.4618,-6.4713,-6.4729,-6.4761,-6.4822,-6.4795,-6.4852,-6.4844,-6.4901,-6.4898,-6.4989,-6.5003,-6.5006,-6.5004,-6.5008,-6.5008,-6.5028,-6.5018,-6.4998,-6.4996,-6.4995,-6.4994,0,-6.4533,-6.4541,-6.4645,-6.4682,-6.4693,-6.4763,-6.4793,-6.4849,-6.4857,-6.4935,-6.4953,-6.4964,-6.503,-6.5031,-6.5106,-6.5104,-6.5215,-6.5201,-6.5202,-6.5199,-6.5272,-6.5265,-6.551,-6.5541,-6.5328,-6.533,-6.5332,0,-6.4639,-6.4706,-6.4751,-6.4792,-6.4817,-6.4882,-6.4921,-6.4916,-6.4957,-6.5007,-6.5057,-6.5121,-6.5172,-6.5279,-6.5292,-6.5349,-6.5337,-6.5418,-6.5345,-6.5347,-6.5337,-6.5333,-6.5339,-6.5432,-6.5435,-6.5437,-6.5438,0,-6.4828,-6.4829,-6.4887,-6.4948,-6.4996,-6.5043,-6.5086,-6.512,-6.5119,-6.5167,-6.5235,-6.5275,-6.5352,-6.5416,-6.5471,-6.549,-6.5464,-6.5462,-6.5481,-6.5486,-6.5484,-6.5485,-6.5241,-6.5456,-6.5454,-6.5453,-6.5452,-6.5451,-6.4963,-6.5021,-6.5062,-6.5128,-6.5161,-6.5202,-6.5257,-6.5272,-6.533,-6.5395,-6.5387,-6.5463,-6.55,-6.5572,-6.5596,-6.5654,-6.5625,-6.5654,-6.5661,-6.5668,-6.5676,-6.5475,-6.5664,-6.5663,-6.5663,-6.5662,-6.5662,0,-6.5149,-6.5175,-6.5236,-6.5298,-6.535,-6.5324,-6.537,-6.5414,-6.5482,-6.552,-6.5571,-6.565,-6.5711,-6.573,-6.5789,-6.5831,-6.5821,-6.5847,-6.5843,-6.5848,-6.5698,-6.5675,-6.5855,-6.5855,-6.5855,-6.5854,-6.5854,-6.5854,-6.5253,-6.5349,-6.5355,-6.5467,-6.549,-6.5567,-6.5596,-6.5633,-6.5663,-6.5752,-6.5804,-6.5817,-6.5847,-6.5908,-6.5962,-6.5966,-6.5988,-6.6019,-6.6018,-6.5878,-6.5859,-6.584,-6.5818,-6.6025,-6.6025,-6.6163,-6.6164,-6.6165]}]]